Terminal Aerodrome Forecast
Issued by NWS Brownsville, TX

Home | Current Version | Previous Version | Text Only | Print | Product List | Glossary On
Versions: 1 2 3 4 5 6 7 8 9 10 11 12 13 14 15 16 17 18 19 20 21 22 23 24 25 26 27 28 29 30 31 32 33 34 35 36 37 38
000
FTUS44 KBRO 202338
TAFBRO
TAF
KBRO 202338Z 2100/2124 16019G26KT P6SM SCT029 BKN035
     FM210200 14014G21KT P6SM SCT020
     FM210400 15013KT P6SM OVC015
     FM211200 15014G20KT P6SM BKN025
     FM211600 15018G24KT P6SM OVC040=

USA.gov is the U.S. government's official web portal to all federal, state and local government web resources and services.